This is the latest recevied weather packets stored in our database for station/object LU3HGB-WX. If no packets are shown the sender has not sent any weather packets the latest 10 day(s).
| Time | Temp. | Humidity | Pressure | Rain* | Wind** | Luminosity | Snow |
|---|---|---|---|---|---|---|---|
| 1788307060 | 11.11° C | 57% | 1018 hPa | 0 mm | - | 0 W/m² | - |
| 1788306759 | 11.11° C | 56% | 1018 hPa | 0 mm | - | 0 W/m² | - |
| 1788306459 | 11.11° C | 57% | 1018 hPa | 0 mm | - | 0 W/m² | - |
| 1788306159 | 11.11° C | 57% | 1018 hPa | 0 mm | - | 0 W/m² | - |
| 1788305859 | 11.11° C | 58% | 1018 hPa | 0 mm | - | 0 W/m² | - |
| 1788305560 | 11.67° C | 57% | 1018 hPa | 0 mm | - | 0 W/m² | - |
| 1788305260 | 11.67° C | 54% | 1018 hPa | 0 mm | - | 0 W/m² | - |
| 1788304959 | 11.67° C | 52% | 1018 hPa | 0 mm | - | 0 W/m² | - |
| 1788304670 | 11.67° C | 53% | 1018 hPa | 0 mm | - | 0 W/m² | - |
| 1788304360 | 11.67° C | 55% | 1018 hPa | 0 mm | - | 0 W/m² | - |
| 1788304059 | 12.22° C | 56% | 1018 hPa | 0 mm | - | 0 W/m² | - |
| 1788303759 | 12.22° C | 53% | 1018 hPa | 0 mm | - | 0 W/m² | - |
| 1788303459 | 12.78° C | 53% | 1018 hPa | 0 mm | - | 0 W/m² | - |
| 1788303160 | 12.78° C | 52% | 1018 hPa | 0 mm | - | 0 W/m² | - |
| 1788302859 | 13.33° C | 52% | 1018 hPa | 0 mm | - | 0 W/m² | - |
| 1788302559 | 13.89° C | 51% | 1018 hPa | 0 mm | - | 0 W/m² | - |
| 1788302260 | 14.44° C | 47% | 1018 hPa | 0 mm | - | 0 W/m² | - |
| 1788301959 | 15.56° C | 45% | 1018 hPa | 0 mm | - | 0 W/m² | - |
| 1788301659 | 16.11° C | 42% | 1018 hPa | 0 mm | - | 0 W/m² | - |
| 1788301361 | 16.67° C | 40% | 1018 hPa | 0 mm | - | 0 W/m² | - |
| 1788301059 | 17.78° C | 38% | 1018 hPa | 0 mm | - | 1 W/m² | - |
| 1788300760 | 18.33° C | 36% | 1018 hPa | 0 mm | - | 2 W/m² | - |
| 1788300460 | 19.44° C | 33% | 1018 hPa | 0 mm | - | 5 W/m² | - |
| 1788300160 | 20° C | 30% | 1017 hPa | 0 mm | - | 8 W/m² | - |
| 1788299860 | 20.56° C | 28% | 1018 hPa | 0 mm | - | 14 W/m² | - |
* Rain latest hour (hover to see other rain measurements)
** Current wind speed in m/s (hover to see current wind gust speed)